Time,TemperatureF,DewpointF,PressureIn,WindDirection,WindDirectionDegrees,WindSpeedMPH,WindSpeedGustMPH,Humidity,HourlyPrecipIn,Conditions,Clouds,dailyrainin,SoftwareType,DateUTC
2013-01-14 00:04:00,49.0,44.0,29.92,NNW,340,3.0,4.0,84,0.00,,,0.01,,2013-01-14 05:04:00,
2013-01-14 00:12:00,49.0,44.0,29.92,NNW,340,3.0,4.0,84,0.00,,,0.01,,2013-01-14 05:12:00,
2013-01-14 00:22:00,49.0,44.0,29.92,NNW,340,0.0,3.0,84,0.00,,,0.01,,2013-01-14 05:22:00,
2013-01-14 00:33:00,50.0,45.0,29.93,NNW,340,1.0,4.0,84,0.00,,,0.01,,2013-01-14 05:33:00,
2013-01-14 00:43:00,50.0,45.0,29.93,NNW,340,1.0,4.0,84,0.00,,,0.01,,2013-01-14 05:43:00,
2013-01-14 00:53:00,50.0,45.0,29.93,NNW,340,1.0,3.0,84,0.00,,,0.01,,2013-01-14 05:53:00,
2013-01-14 01:03:00,50.0,45.0,29.93,NNW,342,0.0,4.0,84,0.00,,,0.01,,2013-01-14 06:03:00,
2013-01-14 01:12:00,50.0,45.0,29.93,NNW,342,0.0,4.0,84,0.00,,,0.01,,2013-01-14 06:12:00,
2013-01-14 01:22:00,50.0,45.0,29.94,NNW,342,1.0,3.0,84,0.00,,,0.01,,2013-01-14 06:22:00,
2013-01-14 01:33:00,50.0,45.0,29.94,NNW,342,0.0,3.0,84,0.00,,,0.01,,2013-01-14 06:33:00,
2013-01-14 01:43:00,50.0,45.0,29.94,NNW,342,0.0,3.0,84,0.00,,,0.01,,2013-01-14 06:43:00,
2013-01-14 01:53:00,50.0,45.0,29.95,NNW,342,3.0,4.0,84,0.01,,,0.02,,2013-01-14 06:53:00,
2013-01-14 02:02:00,50.0,45.0,29.98,NNW,342,4.0,5.0,84,0.04,,,0.05,,2013-01-14 07:02:00,
2013-01-14 02:12:00,50.0,45.0,29.98,NNW,342,4.0,5.0,84,0.04,,,0.05,,2013-01-14 07:12:00,
2013-01-14 02:23:00,50.0,45.0,29.96,SE,124,3.0,11.0,84,0.06,,,0.07,,2013-01-14 07:23:00,
2013-01-14 02:33:00,50.0,46.0,29.93,ESE,123,3.0,8.0,85,0.07,,,0.08,,2013-01-14 07:33:00,
2013-01-14 02:42:00,50.0,46.0,29.93,ESE,123,3.0,8.0,85,0.07,,,0.08,,2013-01-14 07:42:00,
2013-01-14 02:53:00,51.0,47.0,29.91,SE,145,5.0,10.0,85,0.07,,,0.09,,2013-01-14 07:53:00,
2013-01-14 03:02:00,51.0,47.0,29.95,NNW,346,3.0,7.0,85,0.04,,,0.09,,2013-01-14 08:02:00,
2013-01-14 03:12:00,51.0,47.0,29.95,NNW,346,3.0,7.0,85,0.04,,,0.09,,2013-01-14 08:12:00,
2013-01-14 03:22:00,50.0,46.0,29.96,NNW,346,2.0,3.0,85,0.02,,,0.09,,2013-01-14 08:22:00,
2013-01-14 03:33:00,51.0,47.0,29.95,NNW,346,1.0,2.0,85,0.00,,,0.09,,2013-01-14 08:33:00,
2013-01-14 03:42:00,51.0,47.0,29.95,NNW,346,1.0,2.0,85,0.00,,,0.09,,2013-01-14 08:42:00,
2013-01-14 03:53:00,50.0,46.0,29.94,NNW,346,0.0,4.0,85,0.00,,,0.09,,2013-01-14 08:53:00,
2013-01-14 04:02:00,50.0,46.0,29.94,NNW,346,0.0,2.0,85,0.00,,,0.09,,2013-01-14 09:02:00,
2013-01-14 04:12:00,50.0,46.0,29.94,NNW,346,0.0,2.0,85,0.00,,,0.09,,2013-01-14 09:12:00,
2013-01-14 04:23:00,50.0,46.0,29.94,NNW,346,0.0,1.0,85,0.00,,,0.08,,2013-01-14 09:23:00,
2013-01-14 04:33:00,50.0,46.0,29.94,NNW,346,1.0,2.0,85,0.00,,,0.08,,2013-01-14 09:33:00,
2013-01-14 04:43:00,50.0,46.0,29.94,NNW,346,1.0,2.0,85,0.00,,,0.08,,2013-01-14 09:43:00,
2013-01-14 04:53:00,50.0,46.0,29.94,NNW,346,0.0,2.0,85,0.00,,,0.08,,2013-01-14 09:53:00,
2013-01-14 05:02:00,50.0,46.0,29.95,NNW,346,0.0,2.0,85,0.00,,,0.08,,2013-01-14 10:02:00,
2013-01-14 05:12:00,50.0,46.0,29.95,NNW,346,0.0,2.0,85,0.00,,,0.08,,2013-01-14 10:12:00,
2013-01-14 05:23:00,50.0,46.0,29.94,NNW,346,0.0,2.0,85,0.00,,,0.08,,2013-01-14 10:23:00,
2013-01-14 05:32:00,50.0,46.0,29.94,NNW,346,2.0,4.0,85,0.00,,,0.08,,2013-01-14 10:32:00,
2013-01-14 05:42:00,50.0,46.0,29.94,NNW,346,2.0,4.0,85,0.00,,,0.08,,2013-01-14 10:42:00,
2013-01-14 05:53:00,49.0,45.0,29.96,NNW,346,2.0,4.0,85,0.00,,,0.08,,2013-01-14 10:53:00,
2013-01-14 06:02:00,50.0,46.0,29.96,NNW,346,0.0,2.0,85,0.00,,,0.08,,2013-01-14 11:02:00,
2013-01-14 06:12:00,50.0,46.0,29.96,NNW,346,0.0,2.0,85,0.00,,,0.08,,2013-01-14 11:12:00,
2013-01-14 06:22:00,50.0,46.0,29.99,NNW,346,6.0,16.0,85,0.00,,,0.08,,2013-01-14 11:22:00,
2013-01-14 06:33:00,50.0,46.0,30.00,North,5,1.0,7.0,85,0.00,,,0.08,,2013-01-14 11:33:00,
2013-01-14 06:43:00,50.0,46.0,30.00,North,5,1.0,7.0,85,0.00,,,0.08,,2013-01-14 11:43:00,
2013-01-14 06:53:00,50.0,46.0,30.01,North,5,1.0,2.0,85,0.00,,,0.08,,2013-01-14 11:53:00,
2013-01-14 07:03:00,53.0,49.0,30.03,NW,314,8.0,12.0,85,0.00,,,0.08,,2013-01-14 12:03:00,
2013-01-14 07:12:00,53.0,49.0,30.03,NW,314,8.0,12.0,85,0.00,,,0.08,,2013-01-14 12:12:00,
2013-01-14 07:23:00,54.0,50.0,30.04,NNW,333,7.0,12.0,85,0.00,,,0.08,,2013-01-14 12:23:00,
2013-01-14 07:33:00,54.0,48.0,30.06,NNW,343,5.0,9.0,79,0.00,,,0.08,,2013-01-14 12:33:00,
2013-01-14 07:43:00,54.0,48.0,30.06,NNW,343,5.0,9.0,79,0.00,,,0.08,,2013-01-14 12:43:00,
2013-01-14 07:53:00,54.0,46.0,30.08,NNW,336,2.0,11.0,75,0.00,,,0.08,,2013-01-14 12:53:00,
2013-01-14 08:03:00,54.0,45.0,30.08,WNW,300,4.0,7.0,71,0.00,,,0.08,,2013-01-14 13:03:00,
2013-01-14 08:12:00,54.0,45.0,30.08,WNW,300,4.0,7.0,71,0.00,,,0.08,,2013-01-14 13:12:00,
2013-01-14 08:23:00,54.0,45.0,30.10,WNW,302,3.0,6.0,71,0.00,,,0.08,,2013-01-14 13:23:00,
2013-01-14 08:33:00,53.0,43.0,30.11,WNW,300,2.0,6.0,69,0.00,,,0.08,,2013-01-14 13:33:00,
2013-01-14 08:43:00,53.0,43.0,30.11,WNW,300,2.0,6.0,69,0.00,,,0.08,,2013-01-14 13:43:00,
2013-01-14 08:53:00,54.0,43.0,30.11,WNW,300,3.0,4.0,67,0.00,,,0.08,,2013-01-14 13:53:00,
2013-01-14 09:03:00,53.0,42.0,30.12,NW,322,5.0,10.0,67,0.00,,,0.08,,2013-01-14 14:03:00,
2013-01-14 09:13:00,53.0,42.0,30.12,NW,322,5.0,10.0,67,0.00,,,0.08,,2013-01-14 14:13:00,
2013-01-14 09:23:00,54.0,43.0,30.13,NW,320,4.0,7.0,65,0.00,,,0.08,,2013-01-14 14:23:00,
2013-01-14 09:33:00,53.0,41.0,30.14,NW,306,7.0,10.0,63,0.00,,,0.08,,2013-01-14 14:33:00,
2013-01-14 09:43:00,53.0,41.0,30.14,NW,306,7.0,10.0,63,0.00,,,0.08,,2013-01-14 14:43:00,
2013-01-14 09:53:00,53.0,42.0,30.15,NW,315,4.0,9.0,66,0.00,,,0.08,,2013-01-14 14:53:00,
2013-01-14 10:03:00,52.0,41.0,30.16,NW,323,9.0,13.0,65,0.00,,,0.08,,2013-01-14 15:03:00,
2013-01-14 10:12:00,52.0,41.0,30.16,NW,323,9.0,13.0,65,0.00,,,0.08,,2013-01-14 15:12:00,
2013-01-14 10:23:00,52.0,40.0,30.17,NW,324,9.0,15.0,64,0.00,,,0.08,,2013-01-14 15:23:00,
2013-01-14 10:33:00,52.0,39.0,30.18,NW,309,9.0,15.0,62,0.01,,,0.09,,2013-01-14 15:33:00,
2013-01-14 10:43:00,52.0,39.0,30.18,NW,309,9.0,15.0,62,0.01,,,0.09,,2013-01-14 15:43:00,
2013-01-14 10:53:00,52.0,40.0,30.18,NW,310,8.0,16.0,63,0.01,,,0.09,,2013-01-14 15:53:00,
2013-01-14 11:03:00,51.0,39.0,30.19,NW,325,10.0,15.0,63,0.01,,,0.09,,2013-01-14 16:03:00,
2013-01-14 11:12:00,51.0,39.0,30.19,NW,325,10.0,15.0,63,0.01,,,0.09,,2013-01-14 16:12:00,
2013-01-14 11:23:00,51.0,38.0,30.19,NNW,331,9.0,15.0,62,0.01,,,0.09,,2013-01-14 16:23:00,
2013-01-14 11:33:00,51.0,38.0,30.17,NNW,331,9.0,12.0,62,0.00,,,0.09,,2013-01-14 16:33:00,
2013-01-14 11:43:00,51.0,38.0,30.17,NNW,331,9.0,12.0,62,0.00,,,0.09,,2013-01-14 16:43:00,
2013-01-14 11:53:00,50.0,37.0,30.16,NNW,331,10.0,16.0,61,0.00,,,0.09,,2013-01-14 16:53:00,
2013-01-14 12:03:00,50.0,37.0,30.17,NW,319,9.0,16.0,60,0.00,,,0.09,,2013-01-14 17:03:00,
2013-01-14 12:12:00,50.0,37.0,30.17,NW,319,9.0,16.0,60,0.00,,,0.09,,2013-01-14 17:12:00,
2013-01-14 12:23:00,50.0,38.0,30.17,NW,323,5.0,10.0,62,0.00,,,0.09,,2013-01-14 17:23:00,
2013-01-14 12:33:00,50.0,37.0,30.16,NW,325,11.0,15.0,60,0.00,,,0.09,,2013-01-14 17:33:00,
2013-01-14 12:43:00,50.0,37.0,30.16,NW,325,11.0,15.0,60,0.00,,,0.09,,2013-01-14 17:43:00,
2013-01-14 12:54:00,51.0,38.0,30.16,NNW,330,11.0,13.0,60,0.00,,,0.09,,2013-01-14 17:54:00,
2013-01-14 13:03:00,51.0,37.0,30.17,NW,320,5.0,11.0,58,0.00,,,0.09,,2013-01-14 18:03:00,
2013-01-14 13:13:00,51.0,36.0,30.17,North,350,7.0,10.0,57,0.00,,,0.09,,2013-01-14 18:13:00,
2013-01-14 13:23:00,51.0,36.0,30.17,North,350,7.0,10.0,57,0.00,,,0.09,,2013-01-14 18:23:00,
2013-01-14 13:33:00,50.0,34.0,30.15,North,355,12.0,16.0,55,0.00,,,0.09,,2013-01-14 18:33:00,
2013-01-14 13:43:00,50.0,34.0,30.15,North,355,12.0,16.0,55,0.00,,,0.09,,2013-01-14 18:43:00,
2013-01-14 13:53:00,50.0,35.0,30.17,NNW,341,8.0,14.0,57,0.00,,,0.09,,2013-01-14 18:53:00,
2013-01-14 14:03:00,50.0,35.0,30.17,NNW,331,11.0,14.0,57,0.00,,,0.09,,2013-01-14 19:03:00,
2013-01-14 14:13:00,50.0,35.0,30.17,NNW,331,11.0,14.0,57,0.00,,,0.09,,2013-01-14 19:13:00,
2013-01-14 14:22:00,49.0,34.0,30.18,NNW,331,10.0,16.0,57,0.00,,,0.09,,2013-01-14 19:22:00,
2013-01-14 14:33:00,49.0,35.0,30.16,NNW,348,5.0,10.0,59,0.00,,,0.09,,2013-01-14 19:33:00,
2013-01-14 14:43:00,49.0,35.0,30.16,NNW,348,5.0,10.0,59,0.00,,,0.09,,2013-01-14 19:43:00,
2013-01-14 14:53:00,49.0,35.0,30.17,North,355,7.0,12.0,58,0.00,,,0.09,,2013-01-14 19:53:00,
2013-01-14 15:03:00,49.0,35.0,30.18,North,355,7.0,10.0,58,0.00,,,0.09,,2013-01-14 20:03:00,
2013-01-14 15:13:00,49.0,35.0,30.18,North,355,7.0,10.0,58,0.00,,,0.09,,2013-01-14 20:13:00,
2013-01-14 15:23:00,49.0,35.0,30.18,North,355,5.0,11.0,59,0.00,,,0.09,,2013-01-14 20:23:00,
2013-01-14 15:33:00,48.0,34.0,30.18,North,355,6.0,9.0,57,0.00,,,0.09,,2013-01-14 20:33:00,
2013-01-14 15:43:00,48.0,34.0,30.18,North,355,6.0,9.0,57,0.00,,,0.09,,2013-01-14 20:43:00,
2013-01-14 15:53:00,48.0,34.0,30.18,NNW,347,5.0,10.0,58,0.00,,,0.09,,2013-01-14 20:53:00,
2013-01-14 16:03:00,48.0,34.0,30.17,North,349,5.0,7.0,59,0.00,,,0.09,,2013-01-14 21:03:00,
2013-01-14 16:12:00,48.0,34.0,30.17,North,349,5.0,7.0,59,0.00,,,0.09,,2013-01-14 21:12:00,
2013-01-14 16:23:00,48.0,33.0,30.17,North,351,4.0,9.0,55,0.00,,,0.09,,2013-01-14 21:23:00,
2013-01-14 16:33:00,48.0,33.0,30.18,North,350,3.0,6.0,56,0.00,,,0.09,,2013-01-14 21:33:00,
2013-01-14 16:43:00,48.0,33.0,30.18,North,350,3.0,6.0,56,0.00,,,0.09,,2013-01-14 21:43:00,
2013-01-14 16:53:00,48.0,33.0,30.18,North,350,2.0,4.0,56,0.00,,,0.09,,2013-01-14 21:53:00,
2013-01-14 17:03:00,47.0,33.0,30.19,NNW,346,4.0,8.0,57,0.00,,,0.09,,2013-01-14 22:03:00,
2013-01-14 17:12:00,47.0,33.0,30.19,NNW,346,4.0,8.0,57,0.00,,,0.09,,2013-01-14 22:12:00,
2013-01-14 17:23:00,47.0,32.0,30.21,NNW,340,6.0,9.0,56,0.00,,,0.09,,2013-01-14 22:23:00,
2013-01-14 17:33:00,47.0,31.0,30.21,NNW,345,6.0,11.0,53,0.00,,,0.09,,2013-01-14 22:33:00,
2013-01-14 17:43:00,47.0,31.0,30.21,NNW,345,6.0,11.0,53,0.00,,,0.09,,2013-01-14 22:43:00,
2013-01-14 17:53:00,47.0,31.0,30.22,NNW,340,6.0,10.0,54,0.00,,,0.09,,2013-01-14 22:53:00,
2013-01-14 18:03:00,46.0,31.0,30.23,NNW,342,3.0,8.0,55,0.00,,,0.09,,2013-01-14 23:03:00,
2013-01-14 18:12:00,46.0,31.0,30.23,NNW,342,3.0,8.0,55,0.00,,,0.09,,2013-01-14 23:12:00,
2013-01-14 18:23:00,46.0,30.0,30.24,NNW,342,8.0,10.0,54,0.00,,,0.09,,2013-01-14 23:23:00,
2013-01-14 18:33:00,46.0,31.0,30.27,NNW,346,8.0,13.0,55,0.00,,,0.09,,2013-01-14 23:33:00,
2013-01-14 18:43:00,46.0,31.0,30.27,NNW,346,8.0,13.0,55,0.00,,,0.09,,2013-01-14 23:43:00,
2013-01-14 18:53:00,45.0,30.0,30.28,NNW,339,10.0,13.0,56,0.00,,,0.09,,2013-01-14 23:53:00,
2013-01-14 19:03:00,45.0,30.0,30.27,NNW,334,7.0,13.0,56,0.00,,,0.09,,2013-01-15 00:03:00,
2013-01-14 19:12:00,45.0,30.0,30.27,NNW,334,7.0,13.0,56,0.00,,,0.09,,2013-01-15 00:12:00,
2013-01-14 19:23:00,45.0,31.0,30.27,NNW,344,7.0,11.0,57,0.00,,,0.09,,2013-01-15 00:23:00,
2013-01-14 19:33:00,45.0,32.0,30.27,NNW,343,5.0,11.0,59,0.00,,,0.09,,2013-01-15 00:33:00,
2013-01-14 19:43:00,45.0,32.0,30.27,NNW,343,5.0,11.0,59,0.00,,,0.09,,2013-01-15 00:43:00,
2013-01-14 19:53:00,44.0,31.0,30.27,NNW,333,5.0,11.0,60,0.00,,,0.09,,2013-01-15 00:53:00,
2013-01-14 20:02:00,43.0,31.0,30.28,NNW,333,6.0,8.0,62,0.00,,,0.09,,2013-01-15 01:02:00,
2013-01-14 20:12:00,43.0,32.0,30.27,NNW,340,3.0,9.0,66,0.01,,,0.10,,2013-01-15 01:12:00,
2013-01-14 20:22:00,43.0,32.0,30.27,NNW,340,3.0,9.0,66,0.01,,,0.10,,2013-01-15 01:22:00,
2013-01-14 20:32:00,42.0,33.0,30.29,NNW,340,1.0,3.0,69,0.01,,,0.10,,2013-01-15 01:32:00,
2013-01-14 20:43:00,42.0,33.0,30.29,NNW,340,1.0,3.0,69,0.01,,,0.10,,2013-01-15 01:43:00,
2013-01-14 20:52:00,42.0,34.0,30.29,NNW,340,0.0,0.0,72,0.01,,,0.10,,2013-01-15 01:52:00,
2013-01-14 21:02:00,41.0,33.0,30.28,NNW,340,0.0,0.0,73,0.02,,,0.11,,2013-01-15 02:02:00,
2013-01-14 21:12:00,41.0,33.0,30.28,NNW,340,0.0,0.0,73,0.02,,,0.11,,2013-01-15 02:12:00,
2013-01-14 21:23:00,41.0,33.0,30.29,NNW,340,1.0,2.0,74,0.02,,,0.12,,2013-01-15 02:23:00,
2013-01-14 21:32:00,41.0,33.0,30.30,NNW,340,0.0,2.0,74,0.02,,,0.12,,2013-01-15 02:32:00,
2013-01-14 21:42:00,41.0,33.0,30.30,NNW,340,0.0,2.0,74,0.02,,,0.12,,2013-01-15 02:42:00,
2013-01-14 21:53:00,41.0,33.0,30.30,NNW,340,3.0,5.0,74,0.02,,,0.12,,2013-01-15 02:53:00,
2013-01-14 22:02:00,40.0,33.0,30.29,NNW,340,3.0,5.0,75,0.02,,,0.13,,2013-01-15 03:02:00,
2013-01-14 22:12:00,40.0,33.0,30.29,NNW,340,3.0,5.0,75,0.02,,,0.13,,2013-01-15 03:12:00,
2013-01-14 22:22:00,40.0,33.0,30.29,NNW,340,4.0,6.0,75,0.01,,,0.13,,2013-01-15 03:22:00,
2013-01-14 22:33:00,40.0,33.0,30.29,NNW,340,2.0,5.0,76,0.02,,,0.14,,2013-01-15 03:33:00,
2013-01-14 22:42:00,40.0,33.0,30.29,NNW,340,2.0,5.0,76,0.02,,,0.14,,2013-01-15 03:42:00,
2013-01-14 22:53:00,40.0,33.0,30.29,NNW,340,0.0,4.0,76,0.02,,,0.14,,2013-01-15 03:53:00,
2013-01-14 23:02:00,40.0,33.0,30.28,NNW,340,0.0,0.0,77,0.02,,,0.15,,2013-01-15 04:02:00,
2013-01-14 23:12:00,40.0,33.0,30.28,NNW,340,0.0,0.0,77,0.02,,,0.15,,2013-01-15 04:12:00,
2013-01-14 23:22:00,39.0,32.0,30.27,NNW,340,0.0,0.0,77,0.03,,,0.16,,2013-01-15 04:22:00,
2013-01-14 23:32:00,39.0,33.0,30.26,NNW,340,0.0,0.0,78,0.05,,,0.19,,2013-01-15 04:32:00,
2013-01-14 23:42:00,39.0,33.0,30.26,NNW,340,0.0,0.0,78,0.05,,,0.19,,2013-01-15 04:42:00,
2013-01-14 23:52:00,39.0,33.0,30.24,NNW,340,1.0,4.0,78,0.07,,,0.21,,2013-01-15 04:52:00,